Simultaneous Nadir Overpasses (SNOs) Predictions

Prediction of SNOs between GOES-16 and METOP-C Satellite Orbit:

Table of predicted SNOs for the next 14.0 days since TLE Epoch: 7/9/2022
Index Date Time (GOES-16) GOES-16 Lat,Lon METOP-C Lat,Lon Distance(km) Time Diff (sec)
1 07/10/2022 02:30:33 -0.01, -75.20 -0.03, -75.26 6.83 80
2 07/12/2022 14:31:25 0.02, -75.22 -0.08, -74.83 44.45 80
3 07/14/2022 02:50:25 -0.02, -75.21 -0.96, -79.43 480.16 80
4 07/15/2022 02:27:05 -0.01, -75.22 0.16, -74.43 89.34 80
5 07/16/2022 14:48:37 0.01, -75.24 0.85, -79.00 428.26 80
6 07/17/2022 14:25:18 -0.00, -75.26 -0.26, -74.01 141.82 80
7 07/19/2022 02:46:58 0.02, -75.27 -0.70, -78.62 381.05 80
8 07/20/2022 02:23:39 0.02, -75.28 0.42, -73.62 189.77 80
9 07/21/2022 14:45:10 0.01, -75.32 0.66, -78.18 325.58 80
10 07/22/2022 14:21:51 0.01, -75.34 -0.46, -73.18 245.53 80
